Regional Weather Roundup
Issued by NWS

Home | Current Version | Previous Version | Graphics & Text | Print | Product List | Glossary On
Versions: 1 2 3 4 5 6 7 8 9 10 11 12 13 14 15 16 17 18 19 20 21 22 23 24 25 26 27 28 29 30 31 32 33 34 35 36 37 38 39 40 41 42 43 44 45 46 47 48 49 50
291
ASUS43 KFSD 280710
RWRSD

WEATHER ROUNDUP FOR SOUTH DAKOTA
NATIONAL WEATHER SERVICE SIOUX FALLS SD
200 AM CDT WED JUN 28 2017

NOTE: "FAIR" INDICATES FEW OR NO CLOUDS BELOW 12,000 FEET WITH NO
SIGNIFICANT WEATHER AND/OR OBSTRUCTIONS TO VISIBILITY.


SDZ001>005-009-010-012>017-280800-
NORTHWEST AND NORTH CENTRAL SOUTH DAKOTA

CITY           SKY/WX    TMP DP  RH WIND       PRES   REMARKS
MOBRIDGE       CLOUDY    72  58  61 NW12      29.46F
$$

SDZ012>016-024>037-041>051-057-063-072>074-280800-
SOUTHWEST AND SOUTH CENTRAL SOUTH DAKOTA

CITY           SKY/WX    TMP DP  RH WIND       PRES   REMARKS
RAPID CTY ARPT CLOUDY    63  51  65 NW15      29.73F
PIERRE         CLOUDY    71  54  54 W22G28    29.50R
CUSTER         CLEAR     56  41  57 N3        29.87F
PHILIP         MOCLDY    67  57  70 W12       29.62S
PINE RIDGE     CLOUDY    58  56  93 CALM      29.76R
SPEARFISH      FAIR      59  52  77 W7        29.79F
WINNER         FAIR      72  53  51 SW8       29.59F
$$

SDZ004>011-016>023-039-040-280800-
NORTHEAST SOUTH DAKOTA

CITY           SKY/WX    TMP DP  RH WIND       PRES   REMARKS
ABERDEEN       MOCLDY    70  65  84 S12       29.43F
WATERTOWN      CLOUDY    69  62  78 S20G35    29.54F
BROOKINGS      CLOUDY    70  64  83 S20G26    29.61R
$$

SDZ017-020-022-023-036>040-048>070-280800-
SOUTHEAST SOUTH DAKOTA

CITY           SKY/WX    TMP DP  RH WIND       PRES   REMARKS
SIOUX FALLS    LGT RAIN  66  66 100 S8        29.65F
HURON          CLOUDY    72  57  59 SW14      29.50R
CHAMBERLAIN    CLOUDY    73  55  54 CALM      29.58R
MITCHELL       CLOUDY    69  64  84 S20       29.55F
YANKTON        CLOUDY    65  63  93 S3        29.68F
$$

ABBREVIATIONS USED IN REMARKS
   TC - TEMPERATURE IN CELSIUS
  WCI - WIND CHILL INDEX
   HX - HEAT INDEX
  VSB - VISIBILITY





USA.gov is the U.S. government's official web portal to all federal, state and local government web resources and services.